Weather History for Binghamton, NY

Change the Weather History Date:

Thursday, October 10, 2013

  Actual Average Record
Temperature  
Mean Temperature 51 °F 50 °F  
Max Temperature 60 °F 59 °F 77 °F (1961)
Min Temperature 42 °F 42 °F 26 °F (1980)
Degree Days  
Heating Degree Days 14 15  
Month to date heating degree days 54 132  
Since 1 July heating degree days 346 389  
Cooling Degree Days 0 0  
Month to date cooling degree days 12 0  
Year to date cooling degree days 480 379  
Growing Degree Days 1 (Base 50)    
Moisture  
Dew Point 42 °F    
Average Humidity 71    
Maximum Humidity 89    
Minimum Humidity 53    
Precipitation  
Precipitation T in 0.12 in 0.79 in (1998)
Month to date precipitation 1.65 1.13  
Year to date precipitation 34.85 30.97  
Snow  
Snow 0.00 in 0.00 in 0.40 in (2000)
Month to date snowfall 0.0 0.1  
Since 1 July snowfall 0.0 0.1  
Since 1 September snowfall 0.0 0.1  
Snow Depth 0.00 in    
Sea Level Pressure  
Sea Level Pressure 30.25 in    
Wind  
Wind Speed 2 mph (East)    
Max Wind Speed 7 mph    
Max Gust Speed 8 mph    
Visibility 10 miles    
Events      
T = Trace of Precipitation, MM = Missing Value Source: NWS Daily Summary

Daily Weather History Graph

Daily Weather History Graph

Search for Another Location

Airport:

Trip Planner

Search our weather history database for the weather conditions in past years. The results will help you decide how hot, cold, wet, or windy it might be!

Date:

Astronomy

Oct. 10, 2013 Rise Set
Actual Time 7:11 AM EDT 6:29 PM EDT
Civil Twilight 6:43 AM EDT 6:57 PM EDT
Nautical Twilight 6:10 AM EDT 7:30 PM EDT
Astronomical Twilight 5:38 AM EDT 8:02 PM EDT
Moon 1:04 PM EDT (10/10) 11:01 PM EDT (10/10)
Length of Visible Light 12h 14m
Length of Day
11h 18m
Waxing Crescent, 35% of the Moon is Illuminated
Oct 10
Waxing Crescent
Oct 11
First Quarter
Oct 18
Full
Oct 26
Last Quarter
Nov 3
New

Hourly Weather History & Observations

Time (EDT) Temp. Windchill Dew Point Humidity Pressure Visibility Wind Dir Wind Speed Gust Speed Precip Events Conditions
12:53 AM 50.0 °F - 37.9 °F 63% 30.32 in 10.0 mi ESE 3.5 mph - N/A   Clear
1:53 AM 48.9 °F - 37.9 °F 66% 30.32 in 10.0 mi Calm Calm - N/A   Clear
2:53 AM 46.9 °F - 39.0 °F 74% 30.30 in 10.0 mi ESE 4.6 mph - N/A   Clear
3:53 AM 48.0 °F - 39.0 °F 71% 30.28 in 10.0 mi East 4.6 mph - N/A   Clear
4:53 AM 43.0 °F 41.3 °F 39.9 °F 89% 30.28 in 10.0 mi NE 3.5 mph - N/A   Clear
5:53 AM 43.0 °F - 39.9 °F 89% 30.28 in 10.0 mi Calm Calm - N/A   Clear
6:53 AM 43.0 °F - 39.9 °F 89% 30.29 in 10.0 mi Calm Calm - N/A   Clear
7:53 AM 43.0 °F 41.3 °F 39.9 °F 89% 30.29 in 10.0 mi East 3.5 mph - N/A   Clear
8:53 AM 48.0 °F - 42.1 °F 80% 30.29 in 10.0 mi Calm Calm - N/A   Clear
9:53 AM 51.1 °F - 41.0 °F 68% 30.29 in 10.0 mi NNE 3.5 mph - N/A   Clear
10:53 AM 53.1 °F - 41.0 °F 64% 30.28 in 10.0 mi East 5.8 mph - N/A   Clear
11:53 AM 53.1 °F - 39.0 °F 59% 30.27 in 10.0 mi East 4.6 mph - N/A   Clear
12:53 PM 55.9 °F - 39.0 °F 53% 30.25 in 10.0 mi NE 3.5 mph - N/A   Clear
1:53 PM 57.0 °F - 41.0 °F 55% 30.23 in 10.0 mi East 3.5 mph - N/A   Mostly Cloudy
2:53 PM 59.0 °F - 42.1 °F 53% 30.22 in 10.0 mi ENE 4.6 mph - 0.00 in   Overcast
3:53 PM 59.0 °F - 45.0 °F 60% 30.22 in 10.0 mi SSE 5.8 mph - 0.00 in   Mostly Cloudy
4:53 PM 57.9 °F - 46.0 °F 65% 30.20 in 10.0 mi Calm Calm - N/A   Partly Cloudy
5:53 PM 57.0 °F - 45.0 °F 64% 30.21 in 10.0 mi Calm Calm - N/A   Clear
6:53 PM 55.9 °F - 46.9 °F 72% 30.21 in 10.0 mi Calm Calm - N/A   Overcast
7:53 PM 55.9 °F - 43.0 °F 62% 30.20 in 10.0 mi Calm Calm - N/A   Overcast
8:53 PM 53.1 °F - 45.0 °F 74% 30.19 in 10.0 mi Calm Calm - N/A   Overcast
9:53 PM 55.0 °F - 43.0 °F 64% 30.19 in 10.0 mi Calm Calm - N/A   Overcast
10:53 PM 55.0 °F - 44.1 °F 67% 30.19 in 10.0 mi Calm Calm - N/A   Overcast
11:53 PM 54.0 °F - 44.1 °F 69% 30.17 in 10.0 mi ENE 4.6 mph - N/A   Overcast